| time (UTC) | temp F | wind direction | speed knots | gust knots | rain 1hr in | rain 24hr in | rain mn in | humidity % | barometer mb |
| 20260506140015 | 73 | 9 | 2.6 | 6.1 | 0.00 | 0.00 | 0.00 | 92 | 1009.5 |
| 20260506135036 | 73 | 10 | 2.6 | 5.2 | 0.00 | 0.00 | 0.00 | 92 | 1009.3 |
| 20260506134056 | 72 | 10 | 3.5 | 6.1 | 0.00 | 0.00 | 0.00 | 92 | 1009.2 |
| 20260506133015 | 72 | 10 | 3.5 | 6.1 | 0.00 | 0.00 | 0.00 | 92 | 1009.1 |
| 20260506132015 | 72 | 10 | 3.5 | 7.0 | 0.00 | 0.00 | 0.00 | 92 | 1009.1 |
| 20260506131015 | 72 | 10 | 1.7 | 6.1 | 0.00 | 0.00 | 0.00 | 92 | 1009.1 |
| 20260506130015 | 72 | 10 | 2.6 | 5.2 | 0.00 | 0.00 | 0.00 | 92 | 1009.0 |
| 20260506125015 | 72 | 10 | 1.7 | 4.3 | 0.00 | 0.00 | 0.00 | 92 | 1009.0 |
| 20260506124015 | 72 | 9 | 1.7 | 4.3 | 0.00 | 0.00 | 0.00 | 92 | 1009.1 |
| 20260506123015 | 72 | 9 | 0.0 | 3.5 | 0.00 | 0.00 | 0.00 | 92 | 1009.1 |
| 20260506122015 | 72 | 12 | 0.0 | 1.7 | 0.00 | 0.00 | 0.00 | 92 | 1008.9 |
| 20260506121015 | 72 | 9 | 0.9 | 4.3 | 0.00 | 0.00 | 0.00 | 92 | 1008.8 |
| 20260506120015 | 72 | 9 | 1.7 | 4.3 | 0.00 | 0.00 | 0.00 | 92 | 1008.8 |
| 20260506115015 | 72 | 8 | 1.7 | 4.3 | 0.00 | 0.00 | 0.00 | 92 | 1008.7 |
| 20260506114015 | 72 | 8 | 1.7 | 5.2 | 0.00 | 0.00 | 0.00 | 92 | 1008.7 |
| 20260506113015 | 72 | 8 | 0.9 | 4.3 | 0.00 | 0.00 | 0.00 | 91 | 1008.6 |
| 20260506112015 | 72 | 8 | 0.9 | 3.5 | 0.00 | 0.00 | 0.00 | 91 | 1008.7 |
| 20260506111015 | 72 | 8 | 0.9 | 3.5 | 0.00 | 0.00 | 0.00 | 91 | 1008.7 |
| 20260506110015 | 72 | 8 | 0.9 | 3.5 | 0.00 | 0.00 | 0.00 | 91 | 1008.5 |
| 20260506105015 | 72 | 8 | 1.7 | 5.2 | 0.00 | 0.00 | 0.00 | 91 | 1008.6 |
| 20260506104015 | 72 | 8 | 0.9 | 2.6 | 0.00 | 0.00 | 0.00 | 91 | 1008.6 |
| 20260506103015 | 73 | 360 | 0.0 | 6.1 | 0.00 | 0.00 | 0.00 | 90 | 1008.6 |
| 20260506102016 | 73 | 360 | 0.0 | 7.0 | 0.00 | 0.00 | 0.00 | 90 | 1008.6 |
| 20260506101015 | 73 | 269 | 0.9 | 4.3 | 0.00 | 0.00 | 0.00 | 90 | 1008.5 |
| 20260506100015 | 73 | 358 | 0.9 | 7.8 | 0.00 | 0.00 | 0.00 | 90 | 1008.4 |
| 20260506095015 | 73 | 360 | 0.9 | 7.0 | 0.00 | 0.00 | 0.00 | 90 | 1008.4 |
| 20260506094015 | 73 | 357 | 0.9 | 7.8 | 0.00 | 0.00 | 0.00 | 89 | 1008.3 |
| 20260506093015 | 73 | 360 | 0.0 | 3.5 | 0.00 | 0.00 | 0.00 | 89 | 1008.2 |
| 20260506092015 | 73 | 358 | 0.9 | 7.8 | 0.00 | 0.00 | 0.00 | 89 | 1008.0 |
| 20260506091016 | 73 | 360 | 0.9 | 7.0 | 0.00 | 0.00 | 0.00 | 89 | 1008.1 |
| 20260506090056 | 73 | 4 | 0.9 | 7.0 | 0.00 | 0.00 | 0.00 | 88 | 1008.2 |
| 20260506085015 | 73 | 360 | 0.9 | 6.1 | 0.00 | 0.00 | 0.00 | 88 | 1008.3 |
| 20260506084015 | 73 | 7 | 0.9 | 7.8 | 0.00 | 0.00 | 0.00 | 88 | 1008.3 |
| 20260506083015 | 73 | 8 | 0.9 | 7.0 | 0.00 | 0.00 | 0.00 | 88 | 1008.3 |
| 20260506082036 | 73 | 360 | 0.0 | 7.0 | 0.00 | 0.00 | 0.00 | 88 | 1008.2 |
| 20260506081015 | 73 | 360 | 0.0 | 3.5 | 0.00 | 0.00 | 0.00 | 88 | 1008.2 |
| 20260506073015 | 73 | 360 | 0.0 | 1.7 | 0.00 | 0.00 | 0.00 | 87 | 1008.5 |
| 20260506072015 | 73 | 360 | 0.0 | 4.3 | 0.00 | 0.00 | 0.00 | 87 | 1008.6 |
| 20260506071016 | 73 | 7 | 0.0 | 6.1 | 0.00 | 0.00 | 0.00 | 88 | 1008.7 |
| 20260506062016 | 74 | 360 | 0.0 | 1.7 | 0.00 | 0.00 | 0.00 | 87 | 1009.1 |
| 20260506061015 | 74 | 360 | 0.0 | 1.7 | 0.00 | 0.00 | 0.00 | 87 | 1009.0 |
| 20260506051035 | 74 | 360 | 0.0 | 2.6 | 0.00 | 0.00 | 0.00 | 86 | 1008.8 |
| 20260506045015 | 74 | 360 | 0.0 | 7.8 | 0.00 | 0.00 | 0.00 | 85 | 1008.9 |
| 20260506044015 | 74 | 74 | 0.9 | 6.1 | 0.00 | 0.00 | 0.00 | 85 | 1009.0 |
| 20260506043015 | 74 | 360 | 0.0 | 7.0 | 0.00 | 0.00 | 0.00 | 85 | 1008.8 |
| 20260506042015 | 74 | 360 | 0.0 | 1.7 | 0.00 | 0.00 | 0.00 | 85 | 1008.9 |
| 20260506041015 | 74 | 360 | 0.0 | 6.1 | 0.00 | 0.00 | 0.00 | 85 | 1008.7 |
| 20260506040015 | 75 | 360 | 0.0 | 5.2 | 0.00 | 0.00 | 0.00 | 85 | 1008.6 |
| 20260506035016 | 75 | 360 | 0.0 | 6.1 | 0.00 | 0.00 | 0.00 | 84 | 1008.5 |
| 20260506034015 | 75 | 360 | 0.9 | 7.8 | 0.00 | 0.00 | 0.00 | 84 | 1008.3 |
| 20260506033015 | 75 | 360 | 0.0 | 7.8 | 0.00 | 0.00 | 0.00 | 83 | 1008.1 |
| 20260506032015 | 75 | 360 | 0.0 | 0.0 | 0.00 | 0.00 | 0.00 | 83 | 1008.1 |
| 20260506031015 | 75 | 360 | 0.0 | 0.0 | 0.00 | 0.00 | 0.00 | 82 | 1007.9 |
| 20260506030015 | 76 | 360 | 0.0 | 0.9 | 0.00 | 0.00 | 0.00 | 81 | 1007.8 |
| 20260506025015 | 76 | 0.0 | 0.0 | 0.00 | 0.00 | 0.00 | 81 | 1007.6 | |
| 20260506024015 | 76 | 360 | 0.0 | 3.5 | 0.00 | 0.00 | 0.00 | 80 | 1007.4 |
| 20260506023015 | 77 | 360 | 0.0 | 0.9 | 0.00 | 0.00 | 0.00 | 79 | 1007.2 |
| 20260506022015 | 77 | 360 | 0.0 | 7.8 | 0.00 | 0.00 | 0.00 | 78 | 1007.2 |
| 20260506021015 | 77 | 0.0 | 0.0 | 0.00 | 0.00 | 0.00 | 77 | 1007.1 | |
| 20260506020015 | 78 | 360 | 0.0 | 5.2 | 0.00 | 0.00 | 0.00 | 76 | 1006.9 |
| 20260506015015 | 78 | 360 | 0.0 | 1.7 | 0.00 | 0.00 | 0.00 | 75 | 1006.8 |
| 20260506014015 | 78 | 0.0 | 0.0 | 0.00 | 0.00 | 0.00 | 74 | 1006.7 | |
| 20260506013015 | 78 | 24 | 0.0 | 6.1 | 0.00 | 0.00 | 0.00 | 73 | 1006.7 |
| 20260506012015 | 79 | 77 | 0.9 | 3.5 | 0.00 | 0.00 | 0.00 | 73 | 1006.6 |
| 20260506011015 | 79 | 80 | 2.6 | 6.1 | 0.00 | 0.00 | 0.00 | 73 | 1006.5 |
| 20260506010015 | 79 | 85 | 1.7 | 3.5 | 0.00 | 0.00 | 0.00 | 72 | 1006.4 |
| 20260506005055 | 79 | 83 | 0.9 | 3.5 | 0.00 | 0.00 | 0.00 | 71 | 1006.4 |
| 20260506004015 | 80 | 76 | 0.9 | 5.2 | 0.00 | 0.00 | 0.00 | 71 | 1006.4 |
| 20260506003015 | 80 | 79 | 2.6 | 4.3 | 0.00 | 0.00 | 0.00 | 70 | 1006.2 |
| 20260506002035 | 80 | 78 | 1.7 | 5.2 | 0.00 | 0.00 | 0.00 | 69 | 1006.2 |
| 20260506001015 | 80 | 75 | 1.7 | 5.2 | 0.00 | 0.00 | 0.00 | 69 | 1006.1 |
| 20260506000035 | 80 | 360 | 0.0 | 0.0 | 0.00 | 0.00 | 0.00 | 69 | 1006.0 |
| 20260505235015 | 80 | 360 | 0.9 | 7.8 | 0.00 | 0.00 | 0.00 | 68 | 1005.9 |
| 20260505234015 | 80 | 20 | 0.0 | 7.0 | 0.00 | 0.00 | 0.00 | 69 | 1005.9 |
| 20260505233015 | 80 | 360 | 0.0 | 2.6 | 0.00 | 0.00 | 0.00 | 68 | 1005.8 |
| 20260505232015 | 80 | 0.0 | 0.0 | 0.00 | 0.00 | 0.00 | 68 | 1005.7 | |
| 20260505231015 | 80 | 360 | 0.0 | 6.1 | 0.00 | 0.00 | 0.00 | 67 | 1005.7 |
| 20260505230015 | 80 | 67 | 0.9 | 8.7 | 0.00 | 0.00 | 0.00 | 67 | 1005.7 |
| 20260505225015 | 80 | 15 | 0.0 | 5.2 | 0.00 | 0.00 | 0.00 | 67 | 1005.8 |
| 20260505224015 | 80 | 71 | 1.7 | 7.0 | 0.00 | 0.00 | 0.00 | 68 | 1005.9 |
| 20260505223015 | 80 | 0.0 | 0.0 | 0.00 | 0.00 | 0.00 | 67 | 1005.9 | |
| 20260505222015 | 81 | 75 | 0.9 | 6.1 | 0.00 | 0.00 | 0.00 | 67 | 1006.0 |
| 20260505221015 | 80 | 24 | 0.0 | 2.6 | 0.00 | 0.00 | 0.00 | 68 | 1006.0 |
| 20260505220015 | 80 | 360 | 0.0 | 3.5 | 0.00 | 0.00 | 0.00 | 68 | 1006.1 |
| 20260505215035 | 80 | 360 | 0.0 | 0.9 | 0.00 | 0.00 | 0.00 | 67 | 1006.4 |
| 20260505214015 | 80 | 0.0 | 0.0 | 0.00 | 0.00 | 0.00 | 67 | 1006.5 | |
| 20260505213015 | 80 | 72 | 2.6 | 8.7 | 0.00 | 0.00 | 0.00 | 67 | 1006.6 |
| 20260505212035 | 80 | 46 | 0.9 | 7.8 | 0.00 | 0.00 | 0.00 | 67 | 1006.7 |
| 20260505211015 | 80 | 54 | 0.9 | 7.8 | 0.00 | 0.00 | 0.00 | 68 | 1006.9 |
| 20260505210055 | 80 | 72 | 0.9 | 7.0 | 0.00 | 0.00 | 0.00 | 68 | 1007.0 |
| 20260505205015 | 80 | 360 | 0.0 | 0.9 | 0.00 | 0.00 | 0.00 | 68 | 1007.2 |
| 20260505204015 | 80 | 14 | 0.9 | 7.0 | 0.00 | 0.00 | 0.00 | 68 | 1007.4 |
| 20260505203015 | 80 | 50 | 2.6 | 8.7 | 0.00 | 0.00 | 0.00 | 69 | 1007.5 |
| 20260505202015 | 79 | 360 | 0.0 | 0.0 | 0.00 | 0.00 | 0.00 | 69 | 1007.6 |
| 20260505201015 | 79 | 0.0 | 0.0 | 0.00 | 0.00 | 0.00 | 72 | 1007.7 | |
| 20260505200015 | 79 | 54 | 0.0 | 7.0 | 0.00 | 0.00 | 0.00 | 71 | 1007.8 |
| 20260505195015 | 78 | 360 | 0.9 | 8.7 | 0.00 | 0.00 | 0.00 | 75 | 1007.9 |
| 20260505194015 | 77 | 360 | 0.0 | 6.1 | 0.00 | 0.00 | 0.00 | 75 | 1008.0 |
| 20260505193036 | 77 | 29 | 0.0 | 0.0 | 0.00 | 0.00 | 0.00 | 75 | 1008.1 |
| 20260505192015 | 77 | 360 | 0.0 | 1.7 | 0.00 | 0.00 | 0.00 | 75 | 1008.2 |
| 20260505191015 | 77 | 358 | 0.0 | 5.2 | 0.00 | 0.00 | 0.00 | 75 | 1008.4 |
| 20260505190015 | 77 | 360 | 0.0 | 0.0 | 0.00 | 0.00 | 0.00 | 75 | 1008.7 |
| 20260505185036 | 77 | 360 | 0.0 | 0.0 | 0.00 | 0.00 | 0.00 | 76 | 1008.7 |
| 20260505184015 | 76 | 360 | 0.9 | 7.8 | 0.00 | 0.00 | 0.00 | 77 | 1008.8 |
| 20260505183015 | 76 | 10 | 0.0 | 5.2 | 0.00 | 0.00 | 0.00 | 79 | 1008.8 |
| 20260505182015 | 75 | 28 | 0.0 | 4.3 | 0.00 | 0.00 | 0.00 | 80 | 1008.9 |
| 20260505181015 | 75 | 360 | 0.0 | 3.5 | 0.00 | 0.00 | 0.00 | 79 | 1009.0 |
| 20260505180015 | 75 | 360 | 0.0 | 7.0 | 0.00 | 0.00 | 0.00 | 80 | 1009.0 |
| 20260505175035 | 75 | 359 | 0.0 | 6.1 | 0.00 | 0.00 | 0.00 | 80 | 1009.0 |
| 20260505174015 | 75 | 360 | 0.0 | 0.0 | 0.00 | 0.00 | 0.00 | 81 | 1009.1 |
| 20260505173035 | 74 | 360 | 0.0 | 7.0 | 0.00 | 0.00 | 0.00 | 83 | 1009.2 |
| 20260505172015 | 74 | 0.0 | 0.0 | 0.00 | 0.00 | 0.00 | 83 | 1009.3 | |
| 20260505171015 | 73 | 0.0 | 0.0 | 0.00 | 0.00 | 0.00 | 84 | 1009.3 | |
| 20260505170015 | 73 | 0.0 | 0.0 | 0.00 | 0.00 | 0.00 | 84 | 1009.2 | |
| 20260505165036 | 73 | 234 | 5.2 | 10.4 | 0.00 | 0.00 | 0.00 | 85 | 1009.2 |
| 20260505164015 | 72 | 234 | 4.3 | 9.6 | 0.00 | 0.00 | 0.00 | 87 | 1009.2 |
| 20260505163015 | 72 | 237 | 2.6 | 7.8 | 0.00 | 0.00 | 0.00 | 87 | 1009.2 |
| 20260505162035 | 71 | 235 | 4.3 | 7.8 | 0.00 | 0.00 | 0.00 | 88 | 1009.2 |
| 20260505161015 | 71 | 236 | 3.5 | 8.7 | 0.00 | 0.00 | 0.00 | 89 | 1009.2 |
| 20260505153015 | 70 | 244 | 2.6 | 7.8 | 0.00 | 0.00 | 0.00 | 91 | 1009.1 |
| 20260505152015 | 70 | 239 | 2.6 | 9.6 | 0.00 | 0.00 | 0.00 | 92 | 1009.1 |
| 20260505151015 | 69 | 245 | 1.7 | 6.1 | 0.00 | 0.00 | 0.00 | 92 | 1009.1 |